UZB2102 URSS-UZTT

Flight info

Callsign UZB2102
Flight time 3h 8m
Altitude 35000
Route IRGID1X IRGID A944 GUBOR G487 ROKMO R710 UP A102 BABUR N102 ADPAK/K0841F370 N102 KORAG N144 EKDUP N193 DIBAD DIBAD2T
Aircraft A320/M-SDE3FGHIRWY/LB1

Departure

Time 2026-04-21 12:54
Airport Sochi International Airport (URSS)

Arrival

Time 2026-04-21 16:02
Airport Tashkent International Airport (UZTT)
Time Latitude Longitude Altitude Speed Heading
2026-04-21 12:24 43.44747 39.94184 75 ft 0 kts 335°
2026-04-21 12:44 43.44745 39.94185 59 ft 2 kts 335°
2026-04-21 12:45 43.44723 39.94200 73 ft 4 kts 334°
2026-04-21 12:45 43.44700 39.94216 69 ft 4 kts 333°
2026-04-21 12:45 43.44677 39.94231 68 ft 4 kts 336°
2026-04-21 12:45 43.44653 39.94242 67 ft 4 kts 357°
2026-04-21 12:46 43.44636 39.94238 67 ft 2 kts 64°
2026-04-21 12:46 43.44636 39.94236 67 ft 0 kts 65°
2026-04-21 12:48 43.44649 39.94277 66 ft 7 kts 65°
2026-04-21 12:48 43.44670 39.94336 68 ft 9 kts 64°
2026-04-21 12:49 43.44706 39.94443 73 ft 13 kts 64°
2026-04-21 12:49 43.44742 39.94544 69 ft 11 kts 65°
2026-04-21 12:49 43.44780 39.94657 69 ft 15 kts 64°
2026-04-21 12:49 43.44826 39.94791 75 ft 16 kts 65°
2026-04-21 12:50 43.44872 39.94928 71 ft 15 kts 65°
2026-04-21 12:50 43.44914 39.95049 84 ft 13 kts 64°
2026-04-21 12:50 43.44954 39.95156 86 ft 13 kts 63°
2026-04-21 12:50 43.44991 39.95267 90 ft 11 kts 65°
2026-04-21 12:51 43.45025 39.95367 92 ft 13 kts 65°
2026-04-21 12:51 43.45058 39.95461 93 ft 10 kts 64°
2026-04-21 12:51 43.45114 39.95536 92 ft 11 kts 29°
2026-04-21 12:51 43.45174 39.95582 92 ft 9 kts 29°
2026-04-21 12:52 43.45236 39.95654 91 ft 15 kts 54°
2026-04-21 12:52 43.45283 39.95761 95 ft 10 kts 60°
2026-04-21 12:52 43.45291 39.95828 94 ft 6 kts 130°
2026-04-21 12:52 43.45246 39.95824 94 ft 0 kts 203°
2026-04-21 12:53 43.45234 39.95817 94 ft 7 kts 204°
2026-04-21 12:53 43.45032 39.95679 92 ft 70 kts 209°
2026-04-21 12:53 43.44364 39.95169 82 ft 146 kts 209°
2026-04-21 12:53 43.43380 39.94411 540 ft 166 kts 208°
2026-04-21 12:54 43.42393 39.93580 1460 ft 169 kts 214°
2026-04-21 12:54 43.41482 39.92463 1929 ft 186 kts 224°
2026-04-21 12:54 43.40667 39.90928 2224 ft 212 kts 238°
2026-04-21 12:54 43.40063 39.88948 2592 ft 238 kts 252°
2026-04-21 12:55 43.39827 39.86631 3279 ft 250 kts 267°
2026-04-21 12:55 43.40043 39.84231 4106 ft 257 kts 283°
2026-04-21 12:55 43.40744 39.81941 4964 ft 263 kts 299°
2026-04-21 12:55 43.41892 39.79957 5806 ft 268 kts 312°
2026-04-21 12:56 43.43192 39.78100 6643 ft 271 kts 312°
2026-04-21 12:56 43.44503 39.76232 7492 ft 271 kts 312°
2026-04-21 12:56 43.45813 39.74362 8362 ft 271 kts 311°
2026-04-21 12:56 43.47120 39.72489 9246 ft 271 kts 311°
2026-04-21 12:57 43.48427 39.70618 10097 ft 271 kts 311°
2026-04-21 12:57 43.49735 39.68736 10871 ft 272 kts 310°
2026-04-21 12:57 43.51046 39.66840 11623 ft 274 kts 310°
2026-04-21 12:57 43.52364 39.64930 12366 ft 276 kts 310°
2026-04-21 12:58 43.53693 39.63008 13104 ft 278 kts 310°
2026-04-21 12:58 43.55034 39.61071 13829 ft 280 kts 310°
2026-04-21 12:58 43.56388 39.59117 14469 ft 282 kts 310°
2026-04-21 12:58 43.57749 39.57154 15112 ft 284 kts 310°
2026-04-21 12:59 43.59227 39.55317 15731 ft 292 kts 324°
2026-04-21 12:59 43.61147 39.54295 16330 ft 304 kts 347°
2026-04-21 12:59 43.63291 39.54439 16908 ft 319 kts 11°
2026-04-21 12:59 43.65333 39.55900 17062 ft 347 kts 39°
2026-04-21 13:00 43.66824 39.58638 17206 ft 370 kts 59°
2026-04-21 13:00 43.68037 39.61873 17333 ft 388 kts 63°
2026-04-21 13:00 43.69207 39.65318 17476 ft 405 kts 64°
2026-04-21 13:00 43.70387 39.68937 17605 ft 421 kts 65°
2026-04-21 13:01 43.71605 39.72668 17955 ft 430 kts 64°
2026-04-21 13:01 43.72864 39.76439 18441 ft 434 kts 64°
2026-04-21 13:01 43.74159 39.80234 18927 ft 438 kts 63°
2026-04-21 13:01 43.75478 39.84040 19400 ft 441 kts 63°
2026-04-21 13:02 43.76818 39.87873 19868 ft 444 kts 63°
2026-04-21 13:02 43.77970 39.91853 20308 ft 448 kts 72°
2026-04-21 13:02 43.79235 40.00360 21172 ft 455 kts 80°
2026-04-21 13:03 43.79787 40.04675 21606 ft 457 kts 80°
2026-04-21 13:03 43.80342 40.09021 22004 ft 460 kts 80°
2026-04-21 13:03 43.80901 40.13394 22368 ft 463 kts 80°
2026-04-21 13:03 43.81465 40.17794 22783 ft 466 kts 80°
2026-04-21 13:04 43.82034 40.22219 23165 ft 468 kts 80°
2026-04-21 13:04 43.82604 40.26676 23520 ft 471 kts 80°
2026-04-21 13:04 43.83172 40.31144 23828 ft 472 kts 80°
2026-04-21 13:04 43.83741 40.35635 24166 ft 474 kts 80°
2026-04-21 13:05 43.84311 40.40141 24452 ft 477 kts 80°
2026-04-21 13:05 43.84883 40.44691 24682 ft 481 kts 80°
2026-04-21 13:05 43.85454 40.49266 24940 ft 483 kts 81°
2026-04-21 13:05 43.86025 40.53861 25205 ft 486 kts 80°
2026-04-21 13:06 43.86599 40.58488 25494 ft 488 kts 80°
2026-04-21 13:06 43.87170 40.63128 25772 ft 489 kts 80°
2026-04-21 13:06 43.87749 40.67784 26031 ft 491 kts 78°
2026-04-21 13:06 43.88633 40.72359 26274 ft 493 kts 70°
2026-04-21 13:07 43.89929 40.76755 26513 ft 494 kts 65°
2026-04-21 13:07 43.91302 40.81126 26761 ft 495 kts 65°
2026-04-21 13:07 43.92666 40.85500 27033 ft 495 kts 65°
2026-04-21 13:07 43.94030 40.89900 27260 ft 497 kts 65°
2026-04-21 13:08 43.95393 40.94309 27494 ft 497 kts 65°
2026-04-21 13:08 43.96751 40.98714 27823 ft 496 kts 65°
2026-04-21 13:08 43.98105 41.03113 28157 ft 495 kts 65°
2026-04-21 13:08 43.99456 41.07498 28508 ft 493 kts 65°
2026-04-21 13:09 44.00805 41.11873 28852 ft 492 kts 66°
2026-04-21 13:09 44.02147 41.16239 29188 ft 491 kts 66°
2026-04-21 13:09 44.03486 41.20604 29509 ft 491 kts 66°
2026-04-21 13:09 44.04820 41.24961 29843 ft 490 kts 66°
2026-04-21 13:10 44.06151 41.29317 30128 ft 489 kts 66°
2026-04-21 13:10 44.07480 41.33667 30389 ft 489 kts 65°
2026-04-21 13:10 44.08806 41.38018 30644 ft 488 kts 65°
2026-04-21 13:10 44.10129 41.42370 30905 ft 488 kts 65°
2026-04-21 13:11 44.11449 41.46716 31181 ft 488 kts 66°
2026-04-21 13:11 44.12779 41.51055 31443 ft 487 kts 65°
2026-04-21 13:11 44.14141 41.55372 31706 ft 487 kts 64°
2026-04-21 13:11 44.15528 41.59672 31983 ft 486 kts 64°
2026-04-21 13:12 44.16923 41.63953 32251 ft 486 kts 64°
2026-04-21 13:12 44.18319 41.68238 32518 ft 485 kts 63°
2026-04-21 13:12 44.19705 41.72514 32786 ft 485 kts 64°
2026-04-21 13:12 44.21082 41.76798 33058 ft 484 kts 64°
2026-04-21 13:13 44.22448 41.81089 33336 ft 484 kts 64°
2026-04-21 13:13 44.23806 41.85376 33606 ft 483 kts 64°
2026-04-21 13:13 44.25164 41.89664 33861 ft 483 kts 64°
2026-04-21 13:13 44.26522 41.93947 34094 ft 483 kts 64°
2026-04-21 13:14 44.27878 41.98231 34301 ft 483 kts 64°
2026-04-21 13:14 44.29232 42.02519 34497 ft 483 kts 64°
2026-04-21 13:14 44.30586 42.06816 34689 ft 483 kts 64°
2026-04-21 13:14 44.31936 42.11111 34828 ft 484 kts 65°
2026-04-21 13:15 44.34650 42.19765 34873 ft 487 kts 65°
2026-04-21 13:15 44.37343 42.28382 34883 ft 488 kts 65°
2026-04-21 13:16 44.40058 42.37077 34890 ft 488 kts 65°
2026-04-21 13:16 44.42764 42.45773 34891 ft 488 kts 66°
2026-04-21 13:17 44.45463 42.54483 34895 ft 488 kts 66°
2026-04-21 13:17 44.48151 42.63201 34901 ft 488 kts 66°
2026-04-21 13:18 44.50832 42.71919 34898 ft 488 kts 66°
2026-04-21 13:18 44.53513 42.80656 34906 ft 488 kts 66°
2026-04-21 13:19 44.56182 42.89395 34913 ft 488 kts 66°
2026-04-21 13:19 44.58847 42.98150 34912 ft 488 kts 67°
2026-04-21 13:20 44.61502 43.06907 34918 ft 488 kts 67°
2026-04-21 13:20 44.64154 43.15675 34917 ft 488 kts 67°
2026-04-21 13:21 44.66352 43.22971 34915 ft 488 kts 67°
2026-04-21 13:21 44.68984 43.31758 34908 ft 488 kts 67°
2026-04-21 13:22 44.71611 43.40539 34922 ft 487 kts 67°
2026-04-21 13:22 44.74227 43.49319 34928 ft 486 kts 67°
2026-04-21 13:23 44.76829 43.58097 34935 ft 486 kts 68°
2026-04-21 13:23 44.79420 43.66885 34936 ft 486 kts 68°
2026-04-21 13:24 44.82000 43.75675 34934 ft 486 kts 68°
2026-04-21 13:24 44.84572 43.84468 34937 ft 485 kts 68°
2026-04-21 13:25 44.87141 43.93261 34940 ft 485 kts 68°
2026-04-21 13:25 44.89701 44.02060 34940 ft 485 kts 68°
2026-04-21 13:26 44.92251 44.10874 34939 ft 485 kts 68°
2026-04-21 13:26 44.94793 44.19685 34939 ft 485 kts 68°
2026-04-21 13:27 44.97331 44.28508 34951 ft 485 kts 68°
2026-04-21 13:27 44.99865 44.37331 34949 ft 485 kts 68°
2026-04-21 13:28 45.02391 44.46156 34952 ft 485 kts 69°
2026-04-21 13:28 45.04908 44.54988 34949 ft 484 kts 69°
2026-04-21 13:29 45.07412 44.63815 34954 ft 483 kts 69°
2026-04-21 13:29 45.09907 44.72645 34951 ft 483 kts 69°
2026-04-21 13:30 45.12395 44.81474 34959 ft 483 kts 69°
2026-04-21 13:30 45.14877 44.90306 34959 ft 482 kts 69°
2026-04-21 13:31 45.17339 44.99142 34959 ft 482 kts 69°
2026-04-21 13:31 45.19787 45.07927 34957 ft 482 kts 69°
2026-04-21 13:32 45.22247 45.16774 34954 ft 482 kts 69°
2026-04-21 13:32 45.24692 45.25621 34960 ft 482 kts 69°
2026-04-21 13:33 45.27131 45.34482 34958 ft 482 kts 68°
2026-04-21 13:33 45.30228 45.42906 34962 ft 482 kts 61°
2026-04-21 13:34 45.33510 45.51217 34960 ft 482 kts 61°
2026-04-21 13:34 45.36783 45.59542 34956 ft 482 kts 61°
2026-04-21 13:35 45.40044 45.67875 34959 ft 482 kts 62°
2026-04-21 13:35 45.43298 45.76232 34957 ft 483 kts 62°
2026-04-21 13:36 45.46560 45.84586 34955 ft 483 kts 62°
2026-04-21 13:36 45.49814 45.92958 34961 ft 483 kts 62°
2026-04-21 13:37 45.53056 46.01344 34956 ft 483 kts 62°
2026-04-21 13:37 45.56297 46.09736 34960 ft 483 kts 62°
2026-04-21 13:38 45.59515 46.18082 34950 ft 483 kts 62°
2026-04-21 13:38 45.62763 46.26556 34957 ft 483 kts 62°
2026-04-21 13:39 45.65952 46.34926 34964 ft 483 kts 62°
2026-04-21 13:39 45.69165 46.43359 34967 ft 483 kts 62°
2026-04-21 13:40 45.72373 46.51801 34967 ft 483 kts 62°
2026-04-21 13:40 45.75573 46.60244 34969 ft 483 kts 62°
2026-04-21 13:41 45.78768 46.68708 34967 ft 483 kts 63°
2026-04-21 13:41 45.81952 46.77175 34966 ft 483 kts 63°
2026-04-21 13:42 45.85136 46.85653 34968 ft 483 kts 63°
2026-04-21 13:42 45.88314 46.94155 34968 ft 483 kts 63°
2026-04-21 13:43 45.90697 47.03096 34967 ft 479 kts 81°
2026-04-21 13:43 45.91001 47.12540 34965 ft 471 kts 100°
2026-04-21 13:44 45.89473 47.21595 34966 ft 466 kts 110°
2026-04-21 13:44 45.87591 47.30507 34972 ft 467 kts 110°
2026-04-21 13:45 45.85697 47.39412 34958 ft 467 kts 111°
2026-04-21 13:45 45.83803 47.48308 34968 ft 467 kts 111°
2026-04-21 13:46 45.81902 47.57209 34967 ft 466 kts 111°
2026-04-21 13:46 45.80002 47.66096 34976 ft 466 kts 111°
2026-04-21 13:47 45.78091 47.74976 34974 ft 466 kts 111°
2026-04-21 13:47 45.76169 47.83822 34993 ft 465 kts 111°
2026-04-21 13:48 45.74246 47.92654 35002 ft 464 kts 111°
2026-04-21 13:48 45.72328 48.01459 35002 ft 463 kts 111°
2026-04-21 13:49 45.70399 48.10244 35005 ft 462 kts 111°
2026-04-21 13:49 45.68465 48.19010 35007 ft 462 kts 111°
2026-04-21 13:50 45.66530 48.27771 35005 ft 462 kts 111°
2026-04-21 13:50 45.64593 48.36520 35001 ft 462 kts 111°
2026-04-21 13:51 45.62640 48.45260 34997 ft 461 kts 112°
2026-04-21 13:51 45.60681 48.53984 34980 ft 461 kts 112°
2026-04-21 13:52 45.58721 48.62698 34983 ft 461 kts 112°
2026-04-21 13:52 45.56762 48.71400 34991 ft 460 kts 112°
2026-04-21 13:53 45.54794 48.80094 34995 ft 460 kts 112°
2026-04-21 13:53 45.52818 48.88779 34991 ft 461 kts 112°
2026-04-21 13:54 45.50837 48.97468 34979 ft 460 kts 113°
2026-04-21 13:54 45.48866 49.06081 34984 ft 460 kts 113°
2026-04-21 13:55 45.46855 49.14813 34990 ft 460 kts 113°
2026-04-21 13:55 45.44866 49.23413 34992 ft 460 kts 113°
2026-04-21 13:56 45.42858 49.32061 34979 ft 460 kts 113°
2026-04-21 13:56 45.40843 49.40700 34989 ft 460 kts 114°
2026-04-21 13:57 45.38823 49.49326 34990 ft 459 kts 114°
2026-04-21 13:57 45.36930 49.58017 34992 ft 461 kts 111°
2026-04-21 13:58 45.35230 49.66809 34985 ft 461 kts 110°
2026-04-21 13:58 45.33528 49.75607 34969 ft 461 kts 111°
2026-04-21 13:59 45.31760 49.84368 34973 ft 461 kts 111°
2026-04-21 13:59 45.29959 49.93121 34977 ft 462 kts 111°
2026-04-21 14:00 45.28151 50.01873 34980 ft 462 kts 111°
2026-04-21 14:00 45.26356 50.10627 34961 ft 462 kts 111°
2026-04-21 14:01 45.24553 50.19390 34969 ft 462 kts 111°
2026-04-21 14:01 45.22733 50.28141 34970 ft 463 kts 111°
2026-04-21 14:02 45.20906 50.36894 34967 ft 463 kts 112°
2026-04-21 14:03 45.18162 50.50031 34954 ft 463 kts 112°
2026-04-21 14:03 45.16317 50.58786 34962 ft 463 kts 112°
2026-04-21 14:04 45.14471 50.67532 34967 ft 463 kts 112°
2026-04-21 14:04 45.12621 50.76267 34970 ft 463 kts 112°
2026-04-21 14:05 45.10760 50.84991 34971 ft 463 kts 112°
2026-04-21 14:05 45.09207 50.92238 34961 ft 463 kts 112°
2026-04-21 14:06 45.07337 51.00944 34976 ft 462 kts 112°
2026-04-21 14:06 45.05460 51.09636 34968 ft 462 kts 112°
2026-04-21 14:07 45.03577 51.18319 34967 ft 462 kts 112°
2026-04-21 14:07 45.01380 51.28408 34962 ft 462 kts 112°
2026-04-21 14:08 44.99789 51.35676 34950 ft 462 kts 112°
2026-04-21 14:08 44.97880 51.44356 34955 ft 463 kts 112°
2026-04-21 14:09 44.95969 51.53041 34954 ft 463 kts 112°
2026-04-21 14:09 44.94054 51.61730 34957 ft 463 kts 112°
2026-04-21 14:10 44.92125 51.70405 34942 ft 464 kts 112°
2026-04-21 14:10 44.90189 51.79086 34953 ft 464 kts 112°
2026-04-21 14:11 44.88247 51.87769 34944 ft 464 kts 113°
2026-04-21 14:11 44.86299 51.96443 34951 ft 464 kts 113°
2026-04-21 14:12 44.84342 52.05109 34953 ft 464 kts 113°
2026-04-21 14:12 44.82386 52.13706 34956 ft 464 kts 113°
2026-04-21 14:13 44.80416 52.22356 34956 ft 464 kts 113°
2026-04-21 14:13 44.78429 52.30991 34956 ft 464 kts 113°
2026-04-21 14:14 44.76420 52.39674 34957 ft 463 kts 113°
2026-04-21 14:14 44.74430 52.48233 34936 ft 463 kts 114°
2026-04-21 14:15 44.72414 52.56840 34941 ft 463 kts 114°
2026-04-21 14:15 44.70405 52.65459 34931 ft 464 kts 114°
2026-04-21 14:16 44.68386 52.74071 34943 ft 464 kts 114°
2026-04-21 14:16 44.66351 52.82692 34941 ft 465 kts 114°
2026-04-21 14:17 44.64301 52.91293 34935 ft 465 kts 115°
2026-04-21 14:17 44.62250 52.99901 34939 ft 465 kts 115°
2026-04-21 14:18 44.60208 53.08517 34936 ft 465 kts 115°
2026-04-21 14:18 44.58148 53.17121 34939 ft 465 kts 115°
2026-04-21 14:19 44.56081 53.25719 34928 ft 465 kts 115°
2026-04-21 14:19 44.54009 53.34308 34932 ft 465 kts 115°
2026-04-21 14:20 44.51929 53.42893 34933 ft 465 kts 115°
2026-04-21 14:20 44.49848 53.51469 34934 ft 465 kts 115°
2026-04-21 14:21 44.47752 53.60042 34937 ft 465 kts 115°
2026-04-21 14:21 44.45658 53.68605 34922 ft 465 kts 116°
2026-04-21 14:22 44.43558 53.77161 34928 ft 465 kts 116°
2026-04-21 14:22 44.41449 53.85719 34932 ft 465 kts 116°
2026-04-21 14:23 44.39333 53.94261 34932 ft 465 kts 116°
2026-04-21 14:23 44.37206 54.02801 34915 ft 465 kts 116°
2026-04-21 14:24 44.35076 54.11340 34905 ft 466 kts 116°
2026-04-21 14:24 44.32938 54.19886 34912 ft 466 kts 116°
2026-04-21 14:25 44.30781 54.28438 34916 ft 467 kts 116°
2026-04-21 14:25 44.28621 54.36990 34918 ft 467 kts 116°
2026-04-21 14:26 44.26461 54.45540 34904 ft 468 kts 116°
2026-04-21 14:26 44.24286 54.54094 34911 ft 468 kts 116°
2026-04-21 14:27 44.22099 54.62639 34910 ft 468 kts 116°
2026-04-21 14:27 44.19914 54.71188 34913 ft 468 kts 116°
2026-04-21 14:28 44.17721 54.79730 34895 ft 468 kts 116°
2026-04-21 14:28 44.15507 54.88274 34903 ft 469 kts 116°
2026-04-21 14:29 44.13289 54.96825 34904 ft 470 kts 116°
2026-04-21 14:29 44.11073 55.05386 34903 ft 470 kts 116°
2026-04-21 14:30 44.08849 55.13949 34893 ft 471 kts 116°
2026-04-21 14:30 44.06605 55.22500 34901 ft 471 kts 116°
2026-04-21 14:31 44.04351 55.31051 34901 ft 471 kts 116°
2026-04-21 14:31 44.02100 55.39603 34912 ft 471 kts 116°
2026-04-21 14:32 43.99841 55.48146 34918 ft 471 kts 116°
2026-04-21 14:32 43.97568 55.56680 34885 ft 471 kts 117°
2026-04-21 14:33 43.95289 55.65210 34893 ft 471 kts 117°
2026-04-21 14:33 43.93009 55.73735 34900 ft 471 kts 117°
2026-04-21 14:34 43.90725 55.82260 34896 ft 472 kts 117°
2026-04-21 14:34 43.88432 55.90782 34899 ft 471 kts 117°
2026-04-21 14:35 43.86128 55.99287 34901 ft 470 kts 119°
2026-04-21 14:35 43.83326 56.07390 34902 ft 466 kts 123°
2026-04-21 14:36 43.80448 56.15434 34901 ft 466 kts 123°
2026-04-21 14:36 43.77573 56.23470 34880 ft 466 kts 123°
2026-04-21 14:37 43.74722 56.31461 34878 ft 466 kts 123°
2026-04-21 14:37 43.71842 56.39484 34886 ft 466 kts 123°
2026-04-21 14:38 43.68950 56.47492 34878 ft 466 kts 123°
2026-04-21 14:38 43.66053 56.55491 34866 ft 466 kts 123°
2026-04-21 14:39 43.63152 56.63493 34870 ft 466 kts 123°
2026-04-21 14:39 43.60247 56.71482 34869 ft 466 kts 123°
2026-04-21 14:40 43.57336 56.79470 34867 ft 466 kts 123°
2026-04-21 14:40 43.54416 56.87455 34858 ft 466 kts 123°
2026-04-21 14:41 43.51489 56.95432 34862 ft 467 kts 123°
2026-04-21 14:41 43.48566 57.03412 34857 ft 467 kts 123°
2026-04-21 14:42 43.45624 57.11385 34853 ft 467 kts 123°
2026-04-21 14:42 43.42674 57.19352 34834 ft 468 kts 123°
2026-04-21 14:43 43.39711 57.27325 34840 ft 468 kts 123°
2026-04-21 14:43 43.36750 57.35307 34843 ft 469 kts 123°
2026-04-21 14:44 43.33783 57.43281 34843 ft 469 kts 123°
2026-04-21 14:44 43.30802 57.51254 34828 ft 469 kts 123°
2026-04-21 14:45 43.27812 57.59223 34837 ft 469 kts 124°
2026-04-21 14:45 43.24822 57.67191 34842 ft 470 kts 124°
2026-04-21 14:46 43.21822 57.75146 34820 ft 470 kts 124°
2026-04-21 14:46 43.18810 57.83091 34826 ft 470 kts 124°
2026-04-21 14:47 43.15788 57.91041 34820 ft 470 kts 124°
2026-04-21 14:47 43.12768 57.98992 34832 ft 471 kts 124°
2026-04-21 14:48 43.10259 58.05590 34811 ft 471 kts 124°
2026-04-21 14:48 43.07226 58.13527 34819 ft 471 kts 124°
2026-04-21 14:49 43.04184 58.21452 34831 ft 471 kts 124°
2026-04-21 14:49 43.01133 58.29363 34836 ft 471 kts 124°
2026-04-21 14:50 42.98078 58.37271 34822 ft 471 kts 124°
2026-04-21 14:50 42.95027 58.45181 34826 ft 471 kts 124°
2026-04-21 14:51 42.91969 58.53084 34834 ft 471 kts 124°
2026-04-21 14:51 42.88905 58.60972 34840 ft 471 kts 124°
2026-04-21 14:52 42.85850 58.68801 34839 ft 470 kts 124°
2026-04-21 14:52 42.82775 58.76663 34844 ft 470 kts 124°
2026-04-21 14:53 42.79689 58.84520 34845 ft 470 kts 125°
2026-04-21 14:53 42.76951 58.92642 34851 ft 480 kts 112°
2026-04-21 14:54 42.75529 59.01590 34850 ft 485 kts 107°
2026-04-21 14:54 42.74209 59.10582 34853 ft 485 kts 107°
2026-04-21 14:55 42.72848 59.19556 34853 ft 484 kts 108°
2026-04-21 14:55 42.71458 59.28519 34848 ft 484 kts 108°
2026-04-21 14:56 42.70070 59.37477 34847 ft 485 kts 108°
2026-04-21 14:56 42.68678 59.46442 34836 ft 485 kts 108°
2026-04-21 14:57 42.67281 59.55409 34839 ft 485 kts 108°
2026-04-21 14:57 42.65876 59.64367 34845 ft 485 kts 108°
2026-04-21 14:58 42.64465 59.73327 34851 ft 485 kts 108°
2026-04-21 14:58 42.63049 59.82286 34838 ft 485 kts 108°
2026-04-21 14:59 42.61621 59.91241 34828 ft 485 kts 108°
2026-04-21 14:59 42.60184 60.00200 34837 ft 486 kts 108°
2026-04-21 15:00 42.58745 60.09156 34840 ft 486 kts 108°
2026-04-21 15:00 42.57295 60.18112 34845 ft 486 kts 108°
2026-04-21 15:01 42.55833 60.27052 34849 ft 486 kts 108°
2026-04-21 15:01 42.54372 60.36001 34824 ft 486 kts 108°
2026-04-21 15:02 42.52908 60.44942 34834 ft 486 kts 108°
2026-04-21 15:02 42.51428 60.53875 34847 ft 486 kts 108°
2026-04-21 15:03 42.49941 60.62810 34849 ft 486 kts 108°
2026-04-21 15:03 42.48458 60.71674 34850 ft 486 kts 108°
2026-04-21 15:04 42.46960 60.80601 34823 ft 486 kts 109°
2026-04-21 15:04 42.45452 60.89522 34832 ft 486 kts 109°
2026-04-21 15:05 42.43940 60.98448 34836 ft 486 kts 109°
2026-04-21 15:05 42.41660 61.11835 34846 ft 487 kts 109°
2026-04-21 15:06 42.40126 61.20763 34847 ft 487 kts 109°
2026-04-21 15:06 42.38584 61.29694 34818 ft 487 kts 109°
2026-04-21 15:07 42.37035 61.38623 34824 ft 488 kts 109°
2026-04-21 15:07 42.35472 61.47553 34830 ft 488 kts 109°
2026-04-21 15:08 42.33898 61.56481 34833 ft 488 kts 109°
2026-04-21 15:08 42.32325 61.65411 34835 ft 488 kts 109°
2026-04-21 15:09 42.30750 61.74342 34821 ft 489 kts 109°
2026-04-21 15:09 42.29161 61.83268 34830 ft 489 kts 109°
2026-04-21 15:10 42.27561 61.92194 34842 ft 489 kts 109°
2026-04-21 15:10 42.25959 62.01108 34848 ft 488 kts 109°
2026-04-21 15:11 42.24358 62.10015 34850 ft 488 kts 109°
2026-04-21 15:11 42.22752 62.18917 34836 ft 488 kts 110°
2026-04-21 15:12 42.21126 62.27803 34837 ft 488 kts 110°
2026-04-21 15:12 42.19490 62.36683 34840 ft 488 kts 110°
2026-04-21 15:13 42.17861 62.45565 34844 ft 488 kts 110°
2026-04-21 15:13 42.16232 62.54436 34844 ft 488 kts 110°
2026-04-21 15:14 42.14581 62.63319 34832 ft 488 kts 110°
2026-04-21 15:14 42.12924 62.72188 34834 ft 488 kts 110°
2026-04-21 15:15 42.11266 62.81055 34839 ft 488 kts 110°
2026-04-21 15:15 42.09658 62.89946 34838 ft 489 kts 109°
2026-04-21 15:16 42.08082 62.98845 34838 ft 489 kts 109°
2026-04-21 15:16 42.06455 63.07713 34832 ft 488 kts 110°
2026-04-21 15:17 42.04754 63.16550 34823 ft 487 kts 110°
2026-04-21 15:17 42.03042 63.25363 34824 ft 487 kts 110°
2026-04-21 15:18 42.01343 63.34172 34833 ft 486 kts 110°
2026-04-21 15:18 41.99645 63.42972 34835 ft 486 kts 110°
2026-04-21 15:19 41.97944 63.51759 34831 ft 486 kts 110°
2026-04-21 15:19 41.96239 63.60543 34830 ft 486 kts 110°
2026-04-21 15:20 41.94521 63.69315 34820 ft 486 kts 110°
2026-04-21 15:20 41.92792 63.78083 34831 ft 485 kts 110°
2026-04-21 15:21 41.91061 63.86838 34815 ft 485 kts 110°
2026-04-21 15:21 41.89323 63.95590 34817 ft 485 kts 110°
2026-04-21 15:22 41.87587 64.04340 34813 ft 485 kts 110°
2026-04-21 15:22 41.85833 64.13094 34801 ft 487 kts 111°
2026-04-21 15:23 41.84060 64.21864 34800 ft 487 kts 111°
2026-04-21 15:23 41.82293 64.30576 34788 ft 488 kts 111°
2026-04-21 15:24 41.80518 64.39355 34791 ft 488 kts 111°
2026-04-21 15:24 41.78740 64.48143 34799 ft 488 kts 111°
2026-04-21 15:25 41.76945 64.56913 34802 ft 488 kts 111°
2026-04-21 15:25 41.75424 64.65803 34804 ft 493 kts 105°
2026-04-21 15:26 41.74252 64.74853 34790 ft 493 kts 105°
2026-04-21 15:26 41.73062 64.83911 34792 ft 494 kts 105°
2026-04-21 15:27 41.71860 64.92981 34796 ft 495 kts 105°
2026-04-21 15:27 41.70650 65.02049 34789 ft 495 kts 105°
2026-04-21 15:28 41.69436 65.11129 34800 ft 495 kts 106°
2026-04-21 15:28 41.68211 65.20198 34809 ft 496 kts 106°
2026-04-21 15:29 41.66982 65.29266 34792 ft 496 kts 105°
2026-04-21 15:29 41.65738 65.38349 34788 ft 497 kts 106°
2026-04-21 15:30 41.64490 65.47452 34790 ft 498 kts 106°
2026-04-21 15:30 41.63242 65.56575 34798 ft 499 kts 106°
2026-04-21 15:31 41.61976 65.65689 34799 ft 499 kts 106°
2026-04-21 15:31 41.60698 65.74816 34799 ft 500 kts 106°
2026-04-21 15:32 41.59627 65.82406 34792 ft 500 kts 106°
2026-04-21 15:32 41.58332 65.91551 34794 ft 502 kts 106°
2026-04-21 15:33 41.57031 66.00720 34782 ft 503 kts 106°
2026-04-21 15:33 41.55714 66.09916 34796 ft 505 kts 106°
2026-04-21 15:34 41.54389 66.19126 34799 ft 506 kts 107°
2026-04-21 15:34 41.53048 66.28345 34807 ft 506 kts 106°
2026-04-21 15:35 41.51698 66.37572 34794 ft 507 kts 107°
2026-04-21 15:35 41.50341 66.46835 34801 ft 510 kts 107°
2026-04-21 15:36 41.48976 66.56122 34807 ft 511 kts 107°
2026-04-21 15:36 41.47600 66.65427 34808 ft 512 kts 106°
2026-04-21 15:37 41.46243 66.74771 34820 ft 513 kts 106°
2026-04-21 15:37 41.44890 66.84113 34828 ft 513 kts 106°
2026-04-21 15:38 41.43523 66.93453 34811 ft 514 kts 106°
2026-04-21 15:38 41.42144 67.02741 34820 ft 515 kts 106°
2026-04-21 15:39 41.40763 67.12098 34833 ft 515 kts 106°
2026-04-21 15:39 41.39371 67.21464 34835 ft 515 kts 107°
2026-04-21 15:40 41.37964 67.30829 34844 ft 515 kts 106°
2026-04-21 15:40 41.36543 67.40169 34852 ft 514 kts 106°
2026-04-21 15:41 41.35114 67.49504 34845 ft 515 kts 107°
2026-04-21 15:41 41.33692 67.58844 34841 ft 515 kts 106°
2026-04-21 15:42 41.32263 67.68191 34849 ft 515 kts 106°
2026-04-21 15:42 41.30829 67.77467 34859 ft 515 kts 106°
2026-04-21 15:43 41.29367 67.86801 34862 ft 516 kts 106°
2026-04-21 15:43 41.28749 67.96404 34863 ft 523 kts 88°
2026-04-21 15:44 41.29690 68.05962 34663 ft 526 kts 83°
2026-04-21 15:44 41.30206 68.10776 33749 ft 529 kts 83°
2026-04-21 15:44 41.30719 68.15645 32560 ft 529 kts 84°
2026-04-21 15:45 41.31220 68.20447 31368 ft 519 kts 84°
2026-04-21 15:45 41.31710 68.25169 30215 ft 512 kts 84°
2026-04-21 15:45 41.32192 68.29825 28878 ft 505 kts 84°
2026-04-21 15:45 41.32666 68.34417 27581 ft 498 kts 84°
2026-04-21 15:46 41.33131 68.38944 26300 ft 491 kts 85°
2026-04-21 15:46 41.33592 68.43457 25057 ft 495 kts 85°
2026-04-21 15:46 41.34054 68.48027 23835 ft 501 kts 85°
2026-04-21 15:46 41.34519 68.52640 22484 ft 505 kts 85°
2026-04-21 15:47 41.34986 68.57281 21327 ft 504 kts 85°
2026-04-21 15:47 41.35447 68.61849 20604 ft 493 kts 85°
2026-04-21 15:47 41.35888 68.66340 19735 ft 486 kts 88°
2026-04-21 15:47 41.35881 68.70769 18963 ft 473 kts 100°
2026-04-21 15:48 41.35221 68.74986 18226 ft 460 kts 112°
2026-04-21 15:48 41.33989 68.78840 17397 ft 447 kts 123°
2026-04-21 15:48 41.32281 68.82227 16601 ft 435 kts 133°
2026-04-21 15:48 41.30191 68.85062 15855 ft 425 kts 143°
2026-04-21 15:49 41.27947 68.87543 14943 ft 413 kts 139°
2026-04-21 15:49 41.26183 68.90147 13725 ft 408 kts 132°
2026-04-21 15:49 41.24401 68.92999 12889 ft 390 kts 131°
2026-04-21 15:49 41.22715 68.95738 12354 ft 379 kts 131°
2026-04-21 15:50 41.21050 68.98428 11729 ft 375 kts 131°
2026-04-21 15:50 41.19391 69.01077 11152 ft 370 kts 132°
2026-04-21 15:50 41.17778 69.03626 11008 ft 349 kts 131°
2026-04-21 15:50 41.16281 69.05982 10870 ft 320 kts 130°
2026-04-21 15:51 41.15093 69.08344 10652 ft 300 kts 120°
2026-04-21 15:51 41.14359 69.10888 10263 ft 294 kts 106°
2026-04-21 15:51 41.14064 69.13567 10029 ft 294 kts 92°
2026-04-21 15:51 41.14202 69.16274 9827 ft 294 kts 82°
2026-04-21 15:52 41.14516 69.18950 9701 ft 294 kts 82°
2026-04-21 15:52 41.14821 69.21622 9561 ft 291 kts 82°
2026-04-21 15:52 41.15120 69.24272 9432 ft 290 kts 82°
2026-04-21 15:52 41.15419 69.26915 9303 ft 290 kts 82°
2026-04-21 15:53 41.15714 69.29553 9175 ft 289 kts 82°
2026-04-21 15:53 41.16003 69.32161 8821 ft 286 kts 82°
2026-04-21 15:53 41.16293 69.34767 8295 ft 282 kts 82°
2026-04-21 15:53 41.16577 69.37303 7786 ft 274 kts 82°
2026-04-21 15:54 41.16853 69.39772 7272 ft 267 kts 82°
2026-04-21 15:54 41.17121 69.42181 6771 ft 261 kts 82°
2026-04-21 15:54 41.17384 69.44546 6252 ft 257 kts 82°
2026-04-21 15:54 41.17642 69.46871 5717 ft 252 kts 83°
2026-04-21 15:55 41.17911 69.49153 5209 ft 249 kts 77°
2026-04-21 15:55 41.18655 69.51117 5034 ft 229 kts 47°
2026-04-21 15:55 41.19859 69.52335 4976 ft 212 kts 21°
2026-04-21 15:55 41.21241 69.52750 4932 ft 194 kts 355°
2026-04-21 15:56 41.22516 69.52579 4801 ft 177 kts 350°
2026-04-21 15:56 41.23709 69.52384 4719 ft 172 kts 348°
2026-04-21 15:56 41.24889 69.52186 4612 ft 171 kts 348°
2026-04-21 15:56 41.26029 69.51996 4532 ft 161 kts 348°
2026-04-21 15:57 41.27077 69.51598 4475 ft 154 kts 324°
2026-04-21 15:57 41.27818 69.50646 4402 ft 146 kts 297°
2026-04-21 15:57 41.28123 69.49387 4225 ft 141 kts 268°
2026-04-21 15:57 41.28022 69.48117 4062 ft 144 kts 259°
2026-04-21 15:58 41.27881 69.46816 3863 ft 140 kts 259°
2026-04-21 15:58 41.27746 69.45569 3690 ft 137 kts 259°
2026-04-21 15:58 41.27609 69.44306 3509 ft 136 kts 259°
2026-04-21 15:58 41.27475 69.43067 3343 ft 135 kts 258°
2026-04-21 15:59 41.27341 69.41833 3167 ft 134 kts 258°
2026-04-21 15:59 41.27208 69.40607 2993 ft 134 kts 258°
2026-04-21 15:59 41.27075 69.39383 2820 ft 133 kts 258°
2026-04-21 15:59 41.26943 69.38169 2643 ft 133 kts 259°
2026-04-21 16:00 41.26811 69.36955 2480 ft 135 kts 258°
2026-04-21 16:00 41.26676 69.35717 2304 ft 133 kts 259°
2026-04-21 16:00 41.26541 69.34476 2108 ft 139 kts 259°
2026-04-21 16:00 41.26418 69.33229 1966 ft 132 kts 258°
2026-04-21 16:01 41.26273 69.31985 1768 ft 137 kts 259°
2026-04-21 16:01 41.26127 69.30744 1504 ft 133 kts 260°
2026-04-21 16:01 41.26003 69.29552 1396 ft 123 kts 258°
2026-04-21 16:01 41.25897 69.28666 1379 ft 57 kts 263°
2026-04-21 16:02 41.25864 69.28331 1378 ft 30 kts 263°
2026-04-21 16:02 41.25841 69.28089 1382 ft 23 kts 262°
2026-04-21 16:02 41.25821 69.27904 1381 ft 18 kts 262°
2026-04-21 16:02 41.25807 69.27758 1384 ft 13 kts 262°
2026-04-21 16:03 41.25796 69.27650 1382 ft 11 kts 262°
2026-04-21 16:03 41.25797 69.27560 1380 ft 9 kts 292°
2026-04-21 16:03 41.25836 69.27504 1381 ft 7 kts 316°
2026-04-21 16:03 41.25872 69.27462 1380 ft 9 kts 319°
2026-04-21 16:04 41.25920 69.27406 1381 ft 8 kts 318°
2026-04-21 16:04 41.25959 69.27360 1380 ft 7 kts 318°
2026-04-21 16:04 41.26002 69.27310 1379 ft 10 kts 319°
2026-04-21 16:04 41.26044 69.27254 1380 ft 7 kts 297°
2026-04-21 16:05 41.26031 69.27186 1380 ft 9 kts 245°
2026-04-21 16:05 41.26004 69.27104 1380 ft 9 kts 245°
2026-04-21 16:05 41.25977 69.27026 1378 ft 10 kts 245°
2026-04-21 16:05 41.25983 69.26964 1380 ft 7 kts 321°
2026-04-21 16:06 41.26012 69.26945 1381 ft 3 kts 335°
2026-04-21 16:06 41.26016 69.26942 1381 ft 0 kts 335°